| time (UTC) | temp F | wind direction | speed MPH | gust MPH | rain 1hr in | rain 24hr in | rain mn in | humidity % | barometer mb |
| 20260507064104 | 57 | 3 | 6.0 | 17.0 | 0.00 | 0.00 | 0.00 | 44 | 1014.8 |
| 20260507063104 | 58 | 359 | 6.0 | 17.0 | 0.00 | 0.00 | 0.00 | 44 | 1014.8 |
| 20260507062604 | 58 | 12 | 9.0 | 17.0 | 0.00 | 0.00 | 0.00 | 42 | 1014.7 |
| 20260507061605 | 58 | 9 | 9.0 | 20.0 | 0.00 | 0.00 | 0.00 | 42 | 1014.7 |
| 20260507060604 | 59 | 1 | 10.0 | 24.0 | 0.00 | 0.00 | 0.00 | 40 | 1014.6 |
| 20260507060105 | 59 | 6 | 12.0 | 26.0 | 0.00 | 0.00 | 0.00 | 40 | 1014.6 |
| 20260507055604 | 60 | 359 | 12.0 | 22.0 | 0.00 | 0.00 | 0.00 | 40 | 1014.6 |
| 20260507055104 | 60 | 5 | 13.0 | 23.0 | 0.00 | 0.00 | 0.00 | 39 | 1014.5 |
| 20260507054604 | 61 | 10 | 10.0 | 21.0 | 0.00 | 0.00 | 0.00 | 39 | 1014.3 |
| 20260507053605 | 61 | 359 | 9.0 | 20.0 | 0.00 | 0.00 | 0.00 | 39 | 1014.3 |
| 20260507053105 | 61 | 9 | 8.0 | 17.0 | 0.00 | 0.00 | 0.00 | 38 | 1014.2 |
| 20260507052605 | 61 | 6 | 14.0 | 28.0 | 0.00 | 0.00 | 0.00 | 37 | 1014.0 |
| 20260507052105 | 61 | 9 | 13.0 | 21.0 | 0.00 | 0.00 | 0.00 | 37 | 1014.1 |
| 20260507051605 | 61 | 18 | 12.0 | 29.0 | 0.00 | 0.00 | 0.00 | 38 | 1014.1 |
| 20260507051108 | 61 | 4 | 10.0 | 26.0 | 0.00 | 0.00 | 0.00 | 38 | 1014.0 |
| 20260507050605 | 61 | 13 | 13.0 | 28.0 | 0.00 | 0.00 | 0.00 | 38 | 1014.0 |
| 20260507050104 | 62 | 359 | 9.0 | 18.0 | 0.00 | 0.00 | 0.00 | 37 | 1013.9 |
| 20260507045604 | 62 | 359 | 13.0 | 20.0 | 0.00 | 0.00 | 0.00 | 37 | 1013.9 |
| 20260507045105 | 62 | 2 | 9.0 | 18.0 | 0.00 | 0.00 | 0.00 | 38 | 1013.9 |
| 20260507044104 | 61 | 8 | 5.0 | 13.0 | 0.00 | 0.00 | 0.00 | 40 | 1013.8 |
| 20260507043605 | 61 | 2 | 9.0 | 21.0 | 0.00 | 0.00 | 0.00 | 38 | 1013.8 |
| 20260507043105 | 61 | 6 | 14.0 | 25.0 | 0.00 | 0.00 | 0.00 | 37 | 1013.9 |
| 20260507042604 | 61 | 8 | 14.0 | 25.0 | 0.00 | 0.00 | 0.00 | 36 | 1013.8 |
| 20260507042105 | 61 | 8 | 13.0 | 21.0 | 0.00 | 0.00 | 0.00 | 36 | 1013.7 |
| 20260507041605 | 61 | 21 | 8.0 | 15.0 | 0.00 | 0.00 | 0.00 | 36 | 1013.8 |
| 20260507041104 | 61 | 11 | 10.0 | 20.0 | 0.00 | 0.00 | 0.00 | 37 | 1013.7 |
| 20260507040605 | 62 | 4 | 12.0 | 23.0 | 0.00 | 0.00 | 0.00 | 36 | 1013.7 |
| 20260507040105 | 62 | 3 | 12.0 | 24.0 | 0.00 | 0.00 | 0.00 | 36 | 1013.5 |
| 20260507035104 | 62 | 26 | 13.0 | 26.0 | 0.00 | 0.00 | 0.00 | 35 | 1013.4 |
| 20260507034605 | 62 | 4 | 15.0 | 28.0 | 0.00 | 0.00 | 0.00 | 34 | 1013.5 |
| 20260507034105 | 62 | 19 | 12.0 | 30.0 | 0.00 | 0.00 | 0.00 | 37 | 1013.2 |
| 20260507033605 | 62 | 9 | 7.0 | 14.0 | 0.00 | 0.00 | 0.00 | 37 | 1013.1 |
| 20260507032604 | 62 | 2 | 12.0 | 20.0 | 0.00 | 0.00 | 0.00 | 35 | 1013.1 |
| 20260507032105 | 62 | 2 | 11.0 | 20.0 | 0.00 | 0.00 | 0.00 | 35 | 1013.0 |
| 20260507031605 | 62 | 359 | 8.0 | 18.0 | 0.00 | 0.00 | 0.00 | 34 | 1013.0 |
| 20260507031105 | 63 | 2 | 10.0 | 20.0 | 0.00 | 0.00 | 0.00 | 34 | 1013.0 |
| 20260507030604 | 62 | 359 | 10.0 | 21.0 | 0.00 | 0.00 | 0.00 | 34 | 1012.9 |
| 20260507025605 | 62 | 4 | 10.0 | 17.0 | 0.00 | 0.00 | 0.00 | 35 | 1012.8 |
| 20260507025104 | 62 | 24 | 7.0 | 17.0 | 0.00 | 0.00 | 0.00 | 34 | 1012.8 |
| 20260507024604 | 62 | 28 | 12.0 | 29.0 | 0.00 | 0.00 | 0.00 | 31 | 1013.0 |
| 20260507024105 | 62 | 51 | 14.0 | 32.0 | 0.00 | 0.00 | 0.00 | 33 | 1013.1 |
| 20260507023604 | 62 | 17 | 13.0 | 25.0 | 0.00 | 0.00 | 0.00 | 33 | 1013.2 |
| 20260507023104 | 62 | 4 | 17.0 | 25.0 | 0.00 | 0.00 | 0.00 | 31 | 1013.2 |
| 20260507022604 | 62 | 31 | 13.0 | 23.0 | 0.00 | 0.00 | 0.00 | 32 | 1013.2 |
| 20260507022104 | 62 | 10 | 12.0 | 18.0 | 0.00 | 0.00 | 0.00 | 33 | 1013.3 |
| 20260507021605 | 62 | 9 | 8.0 | 20.0 | 0.00 | 0.00 | 0.00 | 34 | 1013.3 |
| 20260507021104 | 62 | 3 | 12.0 | 21.0 | 0.00 | 0.00 | 0.00 | 32 | 1013.3 |
| 20260507020604 | 62 | 3 | 9.0 | 25.0 | 0.00 | 0.00 | 0.00 | 35 | 1013.3 |
| 20260507020104 | 62 | 4 | 9.0 | 25.0 | 0.00 | 0.00 | 0.00 | 34 | 1013.3 |
| 20260507015604 | 62 | 16 | 10.0 | 25.0 | 0.00 | 0.00 | 0.00 | 35 | 1013.5 |
| 20260507015105 | 61 | 7 | 9.0 | 18.0 | 0.00 | 0.00 | 0.00 | 36 | 1013.4 |
| 20260507014605 | 61 | 2 | 8.0 | 18.0 | 0.00 | 0.00 | 0.00 | 37 | 1013.4 |
| 20260507014104 | 61 | 6 | 10.0 | 20.0 | 0.00 | 0.00 | 0.00 | 40 | 1013.5 |
| 20260507013605 | 61 | 5 | 9.0 | 20.0 | 0.00 | 0.00 | 0.00 | 42 | 1013.5 |
| 20260507013105 | 60 | 19 | 10.0 | 23.0 | 0.00 | 0.00 | 0.00 | 43 | 1013.5 |
| 20260507012605 | 60 | 17 | 7.0 | 13.0 | 0.00 | 0.00 | 0.00 | 46 | 1013.6 |
| 20260507012105 | 60 | 10 | 9.0 | 16.0 | 0.00 | 0.00 | 0.00 | 44 | 1013.6 |
| 20260507011604 | 59 | 4 | 12.0 | 21.0 | 0.00 | 0.00 | 0.00 | 45 | 1013.6 |
| 20260507011104 | 60 | 359 | 13.0 | 23.0 | 0.00 | 0.00 | 0.00 | 45 | 1013.6 |
| 20260507010604 | 59 | 11 | 16.0 | 24.0 | 0.00 | 0.00 | 0.00 | 51 | 1013.6 |
| 20260507010104 | 59 | 51 | 9.0 | 15.0 | 0.00 | 0.00 | 0.00 | 58 | 1013.6 |
| 20260507005604 | 59 | 1 | 7.0 | 16.0 | 0.00 | 0.00 | 0.00 | 58 | 1013.5 |
| 20260507004104 | 59 | 26 | 7.0 | 12.0 | 0.00 | 0.00 | 0.00 | 62 | 1013.4 |
| 20260507003605 | 59 | 359 | 7.0 | 21.0 | 0.00 | 0.00 | 0.00 | 62 | 1013.5 |
| 20260507003104 | 59 | 12 | 12.0 | 25.0 | 0.00 | 0.00 | 0.00 | 61 | 1013.5 |
| 20260507002604 | 60 | 8 | 13.0 | 26.0 | 0.00 | 0.00 | 0.00 | 62 | 1013.5 |
| 20260507002104 | 61 | 14 | 16.0 | 26.0 | 0.00 | 0.00 | 0.00 | 60 | 1013.5 |
| 20260507001604 | 61 | 5 | 14.0 | 28.0 | 0.00 | 0.00 | 0.00 | 63 | 1013.3 |
| 20260507000604 | 61 | 4 | 14.0 | 25.0 | 0.00 | 0.00 | 0.00 | 65 | 1012.9 |
| 20260507000104 | 60 | 2 | 7.0 | 13.0 | 0.00 | 0.00 | 0.00 | 68 | 1013.0 |
| 20260506235604 | 59 | 359 | 5.0 | 12.0 | 0.00 | 0.00 | 0.00 | 71 | 1013.1 |
| 20260506235104 | 59 | 14 | 2.0 | 6.0 | 0.00 | 0.00 | 0.00 | 71 | 1013.0 |
| 20260506234604 | 58 | 359 | 0.0 | 3.0 | 0.00 | 0.00 | 0.00 | 71 | 1013.0 |
| 20260506234104 | 58 | 124 | 0.0 | 0.0 | 0.00 | 0.00 | 0.00 | 71 | 1013.0 |
| 20260506233604 | 58 | 93 | 1.0 | 3.0 | 0.00 | 0.00 | 0.00 | 71 | 1012.9 |
| 20260506233104 | 57 | 125 | 0.0 | 5.0 | 0.00 | 0.00 | 0.00 | 72 | 1013.0 |
| 20260506232604 | 57 | 359 | 0.0 | 2.0 | 0.00 | 0.00 | 0.00 | 72 | 1013.0 |
| 20260506232104 | 57 | 359 | 0.0 | 0.0 | 0.00 | 0.00 | 0.00 | 73 | 1013.0 |
| 20260506231604 | 56 | 359 | 0.0 | 2.0 | 0.00 | 0.00 | 0.00 | 73 | 1013.0 |
| 20260506231104 | 56 | 359 | 1.0 | 2.0 | 0.00 | 0.00 | 0.00 | 73 | 1013.1 |
| 20260506230104 | 55 | 359 | 0.0 | 1.0 | 0.00 | 0.00 | 0.00 | 75 | 1013.1 |
| 20260506224604 | 54 | 359 | 0.0 | 3.0 | 0.00 | 0.00 | 0.00 | 77 | 1013.1 |
| 20260506224104 | 53 | 1 | 2.0 | 3.0 | 0.00 | 0.00 | 0.00 | 78 | 1013.2 |
| 20260506223604 | 53 | 44 | 0.0 | 1.0 | 0.00 | 0.00 | 0.00 | 80 | 1013.2 |
| 20260506223104 | 53 | 122 | 0.0 | 0.0 | 0.00 | 0.00 | 0.00 | 81 | 1013.2 |
| 20260506222604 | 52 | 113 | 0.0 | 0.0 | 0.00 | 0.00 | 0.00 | 82 | 1013.1 |
| 20260506222104 | 52 | 118 | 0.0 | 0.0 | 0.00 | 0.00 | 0.00 | 82 | 1013.0 |
| 20260506221604 | 52 | 81 | 0.0 | 0.0 | 0.00 | 0.00 | 0.00 | 82 | 1013.0 |
| 20260506221104 | 51 | 127 | 0.0 | 0.0 | 0.00 | 0.00 | 0.00 | 83 | 1013.0 |
| 20260506220604 | 51 | 123 | 0.0 | 0.0 | 0.00 | 0.00 | 0.00 | 83 | 1013.0 |
| 20260506220104 | 51 | 119 | 0.0 | 0.0 | 0.00 | 0.00 | 0.00 | 83 | 1013.1 |
| 20260506215604 | 51 | 114 | 0.0 | 0.0 | 0.00 | 0.00 | 0.00 | 83 | 1013.0 |
| 20260506215104 | 50 | 111 | 0.0 | 0.0 | 0.00 | 0.00 | 0.00 | 83 | 1012.9 |
| 20260506214604 | 50 | 134 | 0.0 | 0.0 | 0.00 | 0.00 | 0.00 | 84 | 1012.8 |
| 20260506214104 | 50 | 119 | 0.0 | 0.0 | 0.00 | 0.00 | 0.00 | 83 | 1012.8 |
| 20260506213604 | 50 | 115 | 0.0 | 0.0 | 0.00 | 0.00 | 0.00 | 83 | 1012.8 |
| 20260506213104 | 50 | 136 | 0.0 | 0.0 | 0.00 | 0.00 | 0.00 | 83 | 1012.7 |
| 20260506212604 | 50 | 136 | 0.0 | 0.0 | 0.00 | 0.00 | 0.00 | 83 | 1012.7 |
| 20260506212104 | 50 | 135 | 0.0 | 0.0 | 0.00 | 0.00 | 0.00 | 83 | 1012.7 |
| 20260506211604 | 50 | 359 | 0.0 | 0.0 | 0.00 | 0.00 | 0.00 | 82 | 1012.7 |
| 20260506211104 | 50 | 359 | 0.0 | 0.0 | 0.00 | 0.00 | 0.00 | 82 | 1012.6 |
| 20260506210604 | 50 | 359 | 0.0 | 0.0 | 0.00 | 0.00 | 0.00 | 82 | 1012.5 |
| 20260506210104 | 51 | 359 | 0.0 | 0.0 | 0.00 | 0.00 | 0.00 | 81 | 1012.5 |
| 20260506205604 | 51 | 359 | 0.0 | 0.0 | 0.00 | 0.00 | 0.00 | 80 | 1012.4 |
| 20260506205104 | 51 | 359 | 0.0 | 0.0 | 0.00 | 0.00 | 0.00 | 80 | 1012.5 |
| 20260506204604 | 52 | 359 | 0.0 | 0.0 | 0.00 | 0.00 | 0.00 | 79 | 1012.4 |
| 20260506203104 | 52 | 359 | 0.0 | 0.0 | 0.00 | 0.00 | 0.00 | 78 | 1012.4 |
| 20260506202604 | 52 | 359 | 0.0 | 0.0 | 0.00 | 0.00 | 0.00 | 78 | 1012.3 |
| 20260506202104 | 52 | 359 | 0.0 | 0.0 | 0.00 | 0.00 | 0.00 | 78 | 1012.3 |
| 20260506201604 | 52 | 359 | 0.0 | 0.0 | 0.00 | 0.00 | 0.00 | 78 | 1012.2 |
| 20260506201104 | 52 | 359 | 0.0 | 0.0 | 0.00 | 0.00 | 0.00 | 79 | 1012.2 |
| 20260506200104 | 53 | 359 | 0.0 | 0.0 | 0.00 | 0.00 | 0.00 | 77 | 1012.2 |
| 20260506195604 | 53 | 359 | 0.0 | 0.0 | 0.00 | 0.00 | 0.00 | 74 | 1012.2 |
| 20260506195104 | 53 | 7 | 0.0 | 0.0 | 0.00 | 0.00 | 0.00 | 74 | 1012.2 |
| 20260506193603 | 54 | 1 | 0.0 | 0.0 | 0.00 | 0.00 | 0.00 | 74 | 1012.3 |
| 20260506192604 | 54 | 2 | 0.0 | 0.0 | 0.00 | 0.00 | 0.00 | 73 | 1012.5 |
| 20260506191604 | 54 | 22 | 0.0 | 3.0 | 0.00 | 0.00 | 0.00 | 72 | 1012.6 |
| 20260506190604 | 54 | 2 | 1.0 | 3.0 | 0.00 | 0.00 | 0.00 | 72 | 1012.5 |
| 20260506190104 | 55 | 359 | 0.0 | 5.0 | 0.00 | 0.00 | 0.00 | 72 | 1012.4 |
| 20260506185604 | 54 | 359 | 0.0 | 3.0 | 0.00 | 0.00 | 0.00 | 72 | 1012.4 |
| 20260506185104 | 55 | 359 | 1.0 | 5.0 | 0.00 | 0.00 | 0.00 | 72 | 1012.4 |
| 20260506184104 | 54 | 4 | 3.0 | 9.0 | 0.00 | 0.00 | 0.00 | 73 | 1012.4 |
| 20260506183604 | 54 | 0 | 6.0 | 12.0 | 0.00 | 0.00 | 0.00 | 73 | 1012.3 |
| 20260506183104 | 54 | 6 | 7.0 | 13.0 | 0.00 | 0.00 | 0.00 | 74 | 1012.2 |
| 20260506182604 | 54 | 10 | 6.0 | 9.0 | 0.00 | 0.00 | 0.00 | 74 | 1012.1 |
| 20260506181604 | 55 | 137 | 0.0 | 5.0 | 0.00 | 0.00 | 0.00 | 75 | 1012.1 |
| 20260506181104 | 55 | 31 | 1.0 | 6.0 | 0.00 | 0.00 | 0.00 | 75 | 1011.9 |
| 20260506180604 | 55 | 113 | 0.0 | 1.0 | 0.00 | 0.00 | 0.00 | 75 | 1011.9 |
| 20260506180104 | 55 | 132 | 0.0 | 2.0 | 0.00 | 0.00 | 0.00 | 75 | 1011.9 |
| 20260506175604 | 55 | 121 | 1.0 | 3.0 | 0.00 | 0.00 | 0.00 | 75 | 1011.9 |
| 20260506175104 | 55 | 2 | 2.0 | 6.0 | 0.00 | 0.00 | 0.00 | 75 | 1012.0 |
| 20260506174604 | 55 | 359 | 1.0 | 5.0 | 0.00 | 0.00 | 0.00 | 75 | 1012.0 |
| 20260506174104 | 55 | 105 | 0.0 | 5.0 | 0.00 | 0.00 | 0.00 | 76 | 1012.0 |
| 20260506173604 | 55 | 134 | 1.0 | 3.0 | 0.00 | 0.00 | 0.00 | 76 | 1012.0 |
| 20260506173103 | 55 | 134 | 1.0 | 3.0 | 0.00 | 0.00 | 0.00 | 76 | 1012.0 |
| 20260506172604 | 55 | 114 | 1.0 | 5.0 | 0.00 | 0.00 | 0.00 | 76 | 1012.1 |
| 20260506172104 | 55 | 359 | 1.0 | 6.0 | 0.00 | 0.00 | 0.00 | 76 | 1012.1 |
| 20260506171104 | 55 | 88 | 2.0 | 6.0 | 0.00 | 0.00 | 0.00 | 78 | 1012.2 |
| 20260506170604 | 55 | 83 | 2.0 | 6.0 | 0.00 | 0.00 | 0.00 | 78 | 1012.3 |
| 20260506165104 | 55 | 359 | 2.0 | 5.0 | 0.00 | 0.00 | 0.00 | 79 | 1012.5 |
| 20260506164105 | 55 | 359 | 2.0 | 6.0 | 0.00 | 0.00 | 0.00 | 80 | 1012.4 |
| 20260506163605 | 55 | 1 | 2.0 | 5.0 | 0.00 | 0.00 | 0.00 | 81 | 1012.4 |
| 20260506162605 | 55 | 97 | 2.0 | 8.0 | 0.00 | 0.00 | 0.00 | 81 | 1012.5 |
| 20260506162105 | 55 | 14 | 0.0 | 10.0 | 0.00 | 0.00 | 0.00 | 81 | 1012.6 |
| 20260506161605 | 55 | 119 | 0.0 | 5.0 | 0.00 | 0.00 | 0.00 | 82 | 1012.7 |
| 20260506161105 | 55 | 61 | 0.0 | 5.0 | 0.00 | 0.00 | 0.00 | 82 | 1012.8 |
| 20260506160605 | 55 | 136 | 0.0 | 0.0 | 0.00 | 0.00 | 0.00 | 82 | 1012.8 |
| 20260506160105 | 56 | 109 | 1.0 | 3.0 | 0.00 | 0.00 | 0.00 | 82 | 1012.9 |
| 20260506155605 | 56 | 70 | 2.0 | 6.0 | 0.00 | 0.00 | 0.00 | 83 | 1012.9 |
| 20260506154605 | 56 | 359 | 4.0 | 6.0 | 0.00 | 0.00 | 0.00 | 83 | 1013.0 |
| 20260506154105 | 56 | 359 | 5.0 | 7.0 | 0.00 | 0.00 | 0.00 | 83 | 1013.0 |
| 20260506153605 | 56 | 60 | 3.0 | 5.0 | 0.00 | 0.00 | 0.00 | 83 | 1013.0 |
| 20260506153105 | 56 | 101 | 2.0 | 3.0 | 0.00 | 0.00 | 0.00 | 84 | 1013.0 |
| 20260506152605 | 56 | 43 | 3.0 | 5.0 | 0.00 | 0.00 | 0.00 | 84 | 1013.0 |
| 20260506152105 | 57 | 359 | 3.0 | 7.0 | 0.00 | 0.00 | 0.00 | 84 | 1013.0 |
| 20260506151605 | 57 | 0 | 3.0 | 6.0 | 0.00 | 0.00 | 0.00 | 85 | 1013.0 |
| 20260506151105 | 57 | 359 | 1.0 | 3.0 | 0.00 | 0.00 | 0.00 | 86 | 1013.1 |
| 20260506150605 | 57 | 359 | 1.0 | 3.0 | 0.00 | 0.00 | 0.00 | 86 | 1013.2 |
| 20260506150105 | 57 | 359 | 0.0 | 5.0 | 0.00 | 0.00 | 0.00 | 87 | 1013.2 |
| 20260506145605 | 57 | 359 | 2.0 | 5.0 | 0.00 | 0.00 | 0.00 | 87 | 1013.2 |
| 20260506145105 | 57 | 359 | 3.0 | 5.0 | 0.00 | 0.00 | 0.00 | 88 | 1013.2 |
| 20260506144105 | 57 | 359 | 2.0 | 3.0 | 0.00 | 0.00 | 0.00 | 90 | 1013.2 |
| 20260506143605 | 58 | 359 | 3.0 | 5.0 | 0.00 | 0.00 | 0.00 | 90 | 1013.3 |
| 20260506142604 | 58 | 359 | 2.0 | 5.0 | 0.00 | 0.00 | 0.00 | 91 | 1013.3 |
| 20260506141105 | 58 | 359 | 1.0 | 3.0 | 0.00 | 0.00 | 0.00 | 92 | 1013.5 |
| 20260506140605 | 58 | 359 | 0.0 | 2.0 | 0.00 | 0.00 | 0.00 | 92 | 1013.6 |
| 20260506135605 | 58 | 359 | 0.0 | 1.0 | 0.00 | 0.00 | 0.00 | 92 | 1013.6 |
| 20260506135105 | 59 | 359 | 0.0 | 3.0 | 0.00 | 0.00 | 0.00 | 92 | 1013.5 |
| 20260506134605 | 59 | 359 | 0.0 | 3.0 | 0.00 | 0.00 | 0.00 | 92 | 1013.4 |
| 20260506134104 | 59 | 359 | 0.0 | 2.0 | 0.00 | 0.00 | 0.00 | 92 | 1013.5 |
| 20260506133605 | 59 | 359 | 1.0 | 3.0 | 0.00 | 0.00 | 0.00 | 92 | 1013.5 |
| 20260506133105 | 59 | 359 | 0.0 | 1.0 | 0.00 | 0.00 | 0.00 | 92 | 1013.5 |
| 20260506132606 | 58 | 359 | 0.0 | 0.0 | 0.00 | 0.00 | 0.00 | 91 | 1013.6 |
| 20260506132105 | 59 | 359 | 0.0 | 0.0 | 0.00 | 0.00 | 0.00 | 91 | 1013.7 |
| 20260506131606 | 59 | 359 | 0.0 | 0.0 | 0.00 | 0.00 | 0.00 | 92 | 1013.6 |
| 20260506131106 | 59 | 359 | 0.0 | 1.0 | 0.00 | 0.00 | 0.00 | 92 | 1013.7 |
| 20260506130605 | 59 | 359 | 0.0 | 0.0 | 0.00 | 0.00 | 0.00 | 92 | 1013.7 |
| 20260506130105 | 59 | 359 | 0.0 | 0.0 | 0.00 | 0.00 | 0.00 | 92 | 1013.8 |
| 20260506125605 | 59 | 359 | 0.0 | 0.0 | 0.00 | 0.00 | 0.00 | 92 | 1013.9 |
| 20260506125105 | 59 | 359 | 0.0 | 0.0 | 0.00 | 0.00 | 0.00 | 92 | 1014.0 |
| 20260506124605 | 59 | 359 | 0.0 | 0.0 | 0.00 | 0.00 | 0.00 | 92 | 1014.1 |
| 20260506124105 | 59 | 359 | 0.0 | 0.0 | 0.00 | 0.00 | 0.00 | 92 | 1014.1 |
| 20260506123605 | 59 | 359 | 0.0 | 2.0 | 0.00 | 0.00 | 0.00 | 92 | 1014.2 |
| 20260506123105 | 59 | 359 | 0.0 | 0.0 | 0.00 | 0.00 | 0.00 | 92 | 1014.3 |
| 20260506122605 | 59 | 359 | 0.0 | 1.0 | 0.00 | 0.00 | 0.00 | 92 | 1014.4 |
| 20260506122105 | 59 | 359 | 0.0 | 3.0 | 0.00 | 0.00 | 0.00 | 92 | 1014.4 |
| 20260506121605 | 58 | 359 | 0.0 | 3.0 | 0.00 | 0.00 | 0.00 | 92 | 1014.5 |
| 20260506121105 | 58 | 121 | 0.0 | 0.0 | 0.00 | 0.00 | 0.00 | 91 | 1014.6 |
| 20260506120605 | 58 | 112 | 0.0 | 0.0 | 0.00 | 0.00 | 0.00 | 91 | 1014.6 |
| 20260506120105 | 58 | 112 | 0.0 | 1.0 | 0.00 | 0.00 | 0.00 | 91 | 1014.6 |
| 20260506114605 | 58 | 65 | 0.0 | 0.0 | 0.00 | 0.00 | 0.00 | 90 | 1014.8 |
| 20260506114105 | 58 | 65 | 0.0 | 0.0 | 0.00 | 0.00 | 0.00 | 89 | 1014.8 |
| 20260506113605 | 58 | 74 | 0.0 | 0.0 | 0.00 | 0.00 | 0.00 | 89 | 1015.0 |
| 20260506112605 | 58 | 66 | 0.0 | 0.0 | 0.00 | 0.00 | 0.00 | 88 | 1015.0 |
| 20260506112105 | 58 | 66 | 0.0 | 0.0 | 0.00 | 0.00 | 0.00 | 88 | 1015.0 |
| 20260506111605 | 58 | 66 | 0.0 | 0.0 | 0.00 | 0.00 | 0.00 | 88 | 1015.0 |
| 20260506110605 | 58 | 66 | 0.0 | 0.0 | 0.00 | 0.00 | 0.00 | 88 | 1015.0 |
| 20260506110105 | 58 | 67 | 0.0 | 0.0 | 0.00 | 0.00 | 0.00 | 88 | 1015.0 |
| 20260506105604 | 59 | 66 | 0.0 | 0.0 | 0.00 | 0.00 | 0.00 | 88 | 1015.1 |
| 20260506105104 | 59 | 66 | 0.0 | 0.0 | 0.00 | 0.00 | 0.00 | 88 | 1015.1 |
| 20260506104104 | 59 | 66 | 0.0 | 0.0 | 0.00 | 0.00 | 0.00 | 87 | 1015.1 |
| 20260506103604 | 59 | 66 | 0.0 | 0.0 | 0.00 | 0.00 | 0.00 | 87 | 1015.1 |
| 20260506103105 | 59 | 66 | 0.0 | 0.0 | 0.00 | 0.00 | 0.00 | 87 | 1015.1 |
| 20260506102605 | 59 | 66 | 0.0 | 0.0 | 0.00 | 0.00 | 0.00 | 87 | 1015.1 |
| 20260506102105 | 60 | 66 | 0.0 | 0.0 | 0.00 | 0.00 | 0.00 | 87 | 1015.1 |
| 20260506101104 | 60 | 66 | 0.0 | 0.0 | 0.00 | 0.00 | 0.00 | 87 | 1015.2 |
| 20260506100605 | 60 | 66 | 0.0 | 0.0 | 0.00 | 0.00 | 0.00 | 86 | 1015.2 |
| 20260506100105 | 60 | 66 | 0.0 | 0.0 | 0.00 | 0.00 | 0.00 | 86 | 1015.3 |
| 20260506095605 | 60 | 66 | 0.0 | 0.0 | 0.00 | 0.00 | 0.00 | 86 | 1015.3 |
| 20260506095105 | 61 | 66 | 0.0 | 0.0 | 0.00 | 0.00 | 0.00 | 85 | 1015.3 |
| 20260506094605 | 61 | 66 | 0.0 | 0.0 | 0.00 | 0.00 | 0.00 | 85 | 1015.2 |
| 20260506094105 | 61 | 66 | 0.0 | 0.0 | 0.00 | 0.00 | 0.00 | 85 | 1015.2 |
| 20260506093604 | 61 | 66 | 0.0 | 0.0 | 0.00 | 0.00 | 0.00 | 84 | 1015.3 |
| 20260506093105 | 61 | 66 | 0.0 | 0.0 | 0.00 | 0.00 | 0.00 | 84 | 1015.2 |
| 20260506092604 | 62 | 66 | 0.0 | 0.0 | 0.00 | 0.00 | 0.00 | 84 | 1015.2 |
| 20260506091604 | 62 | 66 | 0.0 | 0.0 | 0.00 | 0.00 | 0.00 | 83 | 1015.2 |
| 20260506091104 | 62 | 66 | 0.0 | 0.0 | 0.00 | 0.00 | 0.00 | 83 | 1015.2 |
| 20260506090605 | 63 | 66 | 0.0 | 0.0 | 0.00 | 0.00 | 0.00 | 83 | 1015.2 |
| 20260506090105 | 63 | 66 | 0.0 | 0.0 | 0.00 | 0.00 | 0.00 | 82 | 1015.2 |
| 20260506085605 | 63 | 66 | 0.0 | 0.0 | 0.00 | 0.00 | 0.00 | 81 | 1015.3 |
| 20260506085104 | 64 | 66 | 0.0 | 0.0 | 0.00 | 0.00 | 0.00 | 81 | 1015.2 |
| 20260506084105 | 64 | 66 | 0.0 | 0.0 | 0.00 | 0.00 | 0.00 | 80 | 1015.3 |
| 20260506083605 | 64 | 66 | 0.0 | 0.0 | 0.00 | 0.00 | 0.00 | 80 | 1015.3 |
| 20260506083105 | 65 | 66 | 0.0 | 0.0 | 0.00 | 0.00 | 0.00 | 80 | 1015.3 |
| 20260506082105 | 65 | 66 | 0.0 | 0.0 | 0.00 | 0.00 | 0.00 | 79 | 1015.2 |
| 20260506081605 | 65 | 66 | 0.0 | 0.0 | 0.00 | 0.00 | 0.00 | 79 | 1015.3 |
| 20260506081106 | 66 | 66 | 0.0 | 0.0 | 0.00 | 0.00 | 0.00 | 78 | 1015.3 |
| 20260506080605 | 66 | 66 | 0.0 | 0.0 | 0.00 | 0.00 | 0.00 | 77 | 1015.2 |
| 20260506080105 | 66 | 66 | 0.0 | 0.0 | 0.00 | 0.00 | 0.00 | 77 | 1015.2 |
| 20260506072604 | 68 | 66 | 0.0 | 0.0 | 0.00 | 0.00 | 0.00 | 74 | 1015.1 |
| 20260506072104 | 68 | 66 | 0.0 | 0.0 | 0.00 | 0.00 | 0.00 | 74 | 1015.1 |
| 20260506071105 | 69 | 66 | 0.0 | 0.0 | 0.00 | 0.00 | 0.00 | 73 | 1015.1 |
| 20260506070604 | 69 | 66 | 0.0 | 0.0 | 0.00 | 0.00 | 0.00 | 72 | 1015.1 |
| 20260506070105 | 69 | 66 | 0.0 | 0.0 | 0.00 | 0.00 | 0.00 | 72 | 1015.1 |